Location: Gisborne
(38.6530°S, 178.0040°E)
Time: 09:26:15
(UTC+13:00)

USA 238 DEB - Pass Details

Date: 24 January 2019
Orbit: 1045 x 1168 km, 63.4° (Epoch: 23 January)

Event Time Altitude Azimuth Distance (km) Brightness Sun altitude
Rises 22:13:15 0° 347° (NNW) 4,029 6.4 -17.5°
Reaches altitude 10° 22:16:03 10° 352° (N) 3,071 5.8 -17.9°
Maximum altitude 22:23:05 50° 64° (ENE) 1,451 4.0 -18.8°
Drops below altitude 10° 22:30:04 10° 137° (SE) 3,047 6.1 -19.8°
Sets 22:32:49 0° 141° (SE) 3,995 6.8 -20.1°
